Location: Huesca
(42.1318°N, 0.4078°W)
Time: 19:47:03
(UTC+02:00)

CUTE 1.7 + AOD 2 - Pass Details

Date: 18 May 2025
Orbit: 547 x 559 km, 97.8° (Epoch: 11 June)

Event Time Altitude Azimuth Distance (km) Brightness Sun altitude
Rises 05:27:36 0° 20° (NNE) 2,759 ? -11.6°
Reaches altitude 10° 05:29:51 10° 28° (NNE) 1,857 ? -11.3°
Maximum altitude 05:33:39 40° 98° (E) 831 ? -10.8°
Drops below altitude 10° 05:37:24 10° 169° (S) 1,838 ? -10.2°
Sets 05:39:37 0° 177° (S) 2,726 ? -9.9°
